This demonstration page uses our WeatherBlox Daily Observations layout. Learn more.

Left ArrowRight Arrow

Hourly Observations for February 19, 2021

Temp ( °F °C ) Dew Point ( °F °C ) Humidity (%) Winds ( mph kmh ) Pressure ( in mb ) Visibility ( mi km ) Precip ( " mm )
12:15 am 00:15 undefined 11 -11.5 9 -13 89 89 SW 5 7 30.51 1033 10 16 N/A
12:35 am 00:35 undefined 12 -11.2 9 -12.7 89 89 SW 7 11 30.50 1033 10 16 N/A
12:55 am 00:55 undefined 12 -11 10 -12.3 90 90 SW 7 11 30.50 1033 10 16 N/A
1:15 am 01:15 undefined 11 -11.7 8 -13.2 89 89 SW 8 13 30.49 1033 10 16 N/A
1:35 am 01:35 undefined 11 -11.6 8 -13.1 89 89 SW 6 9 30.49 1033 10 16 N/A
1:55 am 01:55 undefined 13 -10.7 10 -12.1 90 90 WSW 5 7 30.47 1032 10 16 N/A
2:15 am 02:15 undefined 13 -10.5 11 -11.9 90 90 WSW 5 7 30.47 1032 10 16 N/A
2:35 am 02:35 undefined 13 -10.5 11 -11.8 90 90 N N/A 30.46 1032 10 16 N/A
2:55 am 02:55 undefined 12 -11.3 9 -12.7 90 90 N N/A 30.47 1032 10 16 N/A
3:15 am 03:15 undefined 12 -11.3 9 -12.7 90 90 N N/A 30.45 1031 7 11 N/A
3:35 am 03:35 undefined 10 -12.1 8 -13.6 89 89 N N/A 30.45 1031 7 11 N/A
3:55 am 03:55 undefined 10 -12.2 8 -13.6 89 89 WSW 3 6 30.45 1031 7 11 N/A
4:15 am 04:15 undefined 9 -12.6 7 -14.1 89 89 NW 3 6 30.45 1031 7 11 N/A
4:35 am 04:35 undefined 4 -15.5 1 -17.3 86 86 NW 5 7 30.47 1032 7 11 N/A
4:55 am 04:55 Mostly Clear with Mist and Fog 3 -16.2 N/A 86 86 N N/A 30.47 1032 3 4 N/A
5:15 am 05:15 Mostly Clear with Mist and Fog 3 -15.9 N/A 86 86 N N/A 30.46 1031 5 8 N/A
5:35 am 05:35 Partly Cloudy with Isolated Snow Showers 3 -16.2 -1 -18.1 85 85 N N/A 30.46 1032 7 11 N/A
5:55 am 05:55 undefined 2 -16.8 -2 -18.8 85 85 N N/A 30.47 1032 7 11 N/A
6:15 am 06:15 undefined N/A N/A N/A N N/A N/A 10 16 N/A
6:35 am 06:35 undefined N/A N/A N/A N N/A N/A 7 11 N/A
6:55 am 06:55 Partly Cloudy with Isolated Snow Showers N/A N/A N/A N N/A N/A 7 11 N/A
7:15 am 07:15 Hazy N/A N/A N/A N N/A N/A 5 8 N/A
7:35 am 07:35 Hazy N/A N/A N/A N N/A N/A 4 6 N/A
7:55 am 07:55 Hazy N/A N/A N/A N N/A N/A 4 6 N/A
8:15 am 08:15 Hazy N/A N/A N/A N N/A N/A 5 8 N/A
8:35 am 08:35 Hazy N/A N/A N/A N N/A N/A 5 8 N/A
8:55 am 08:55 Partly Cloudy with Mist and Fog N/A N/A N/A SSW 3 6 N/A 3 4 N/A
9:15 am 09:15 Hazy N/A N/A N/A N N/A N/A 5 8 N/A
9:35 am 09:35 Hazy N/A N/A N/A N N/A N/A 5 8 N/A
9:55 am 09:55 Partly Cloudy with Isolated Snow Showers N/A N/A N/A SSW 3 6 N/A 5 8 N/A
10:15 am 10:15 undefined N/A N/A N/A N N/A N/A 7 11 N/A
10:35 am 10:35 undefined N/A N/A N/A N N/A N/A 10 16 N/A
10:55 am 10:55 undefined N/A N/A N/A N N/A N/A 10 16 N/A
11:15 am 11:15 undefined N/A N/A N/A N N/A N/A 10 16 N/A
11:35 am 11:35 undefined N/A N/A N/A N N/A N/A 10 16 N/A
11:55 am 11:55 undefined N/A N/A N/A S 3 6 N/A 10 16 N/A
12:15 pm 12:15 undefined N/A N/A N/A N N/A N/A 10 16 N/A
12:35 pm 12:35 undefined 17 -8.1 15 -9.5 90 90 N N/A 30.32 1027 10 16 N/A
12:55 pm 12:55 undefined 18 -7.6 16 -9.1 89 89 N N/A 30.30 1026 10 16 N/A
1:15 pm 13:15 undefined 19 -7 16 -9 86 86 N N/A 30.29 1026 10 16 N/A
1:35 pm 13:35 undefined 23 -5.2 17 -8.1 80 80 SSW 3 6 30.27 1025 10 16 N/A
1:55 pm 13:55 undefined 24 -4.6 18 -7.6 80 80 SW 8 13 30.26 1025 10 16 N/A
2:15 pm 14:15 undefined 24 -4.5 18 -7.8 78 78 SW 7 11 30.25 1024 10 16 N/A
2:35 pm 14:35 undefined 24 -4.5 18 -8 77 77 SW 6 9 30.24 1024 10 16 N/A
2:55 pm 14:55 undefined 23 -4.8 17 -8.2 77 77 SSW 7 11 30.24 1024 10 16 N/A
3:15 pm 15:15 undefined 24 -4.5 17 -8.5 74 74 SW 7 11 30.23 1024 10 16 N/A
3:35 pm 15:35 undefined 23 -4.8 17 -8.4 76 76 SW 6 9 30.23 1024 10 16 N/A
3:55 pm 15:55 undefined 24 -4.7 17 -8.4 76 76 SSW 6 9 30.23 1024 10 16 N/A
4:15 pm 16:15 undefined 24 -4.7 18 -8 78 78 SW 8 13 30.23 1024 10 16 N/A
4:35 pm 16:35 undefined 24 -4.6 18 -7.8 79 79 SW 5 7 30.23 1024 10 16 N/A
4:55 pm 16:55 undefined 25 -4.1 18 -7.7 76 76 SSW 3 6 30.23 1024 10 16 N/A
5:15 pm 17:15 undefined 25 -4.1 18 -7.9 75 75 SW 3 6 30.23 1024 10 16 N/A
5:35 pm 17:35 undefined 24 -4.5 17 -8.1 76 76 SW 3 6 30.23 1024 10 16 N/A
5:55 pm 17:55 undefined 23 -5 17 -8.3 78 78 SSW 5 7 30.22 1023 10 16 N/A
6:15 pm 18:15 undefined 22 -5.3 17 -8.5 78 78 SSW 3 6 30.22 1023 10 16 N/A
6:35 pm 18:35 undefined 21 -6 16 -8.9 80 80 SSW 5 7 30.23 1024 10 16 N/A
6:55 pm 18:55 undefined 21 -6.1 16 -8.9 81 81 SSW 3 6 30.25 1024 10 16 N/A
7:15 pm 19:15 undefined 20 -6.9 15 -9.5 82 82 N N/A 30.25 1024 10 16 N/A
7:35 pm 19:35 undefined 14 -9.9 10 -12.1 84 84 N N/A 30.28 1026 10 16 N/A
7:55 pm 19:55 undefined 15 -9.6 12 -11.2 88 88 N N/A 30.29 1026 10 16 N/A
8:15 pm 20:15 undefined 17 -8.3 14 -10.1 87 87 NNE 5 7 30.28 1025 10 16 N/A
8:35 pm 20:35 undefined 16 -9 13 -10.8 87 87 N N/A 30.28 1026 10 16 N/A
8:55 pm 20:55 undefined 16 -9.1 12 -10.9 87 87 N N/A 30.29 1026 10 16 N/A
9:15 pm 21:15 undefined 16 -8.7 13 -10.5 87 87 N N/A 30.28 1025 10 16 N/A
9:35 pm 21:35 undefined 15 -9.2 12 -11.3 85 85 N N/A 30.30 1026 10 16 N/A
9:55 pm 21:55 undefined 14 -10 11 -11.6 88 88 N N/A 30.31 1027 10 16 N/A
10:15 pm 22:15 undefined 14 -9.9 12 -11.2 90 90 N N/A 30.30 1026 10 16 N/A
10:35 pm 22:35 undefined 14 -10 11 -11.5 89 89 N N/A 30.29 1026 7 11 N/A
10:55 pm 22:55 Mostly Clear with Mist and Fog 13 -10.7 11 -11.9 91 91 ESE 5 7 30.30 1026 4 6 N/A
11:15 pm 23:15 Mostly Clear with Mist and Fog 13 -10.6 11 -11.8 91 91 N N/A 30.31 1026 4 6 N/A
11:35 pm 23:35 Mostly Clear with Mist and Fog 11 -11.5 9 -13 89 89 N N/A 30.31 1026 2 3 N/A
11:55 pm 23:55 undefined 9 -12.8 6 -14.3 89 89 N N/A 30.32 1027 7 11 N/A

Powered by AerisWeather